Погода в Куликове

Россия / Ивановская область     56°59′45″N   41°12′34″E
темп.,
°C
ветер,
м/с
пор.,
м/с
влажн.,
%
обл.,
%
осадки,
мм/ч
давл.,
гПа
погр.,
м
13 мая, чт
чт1300:00+15вюв348895 0.3 102168
03:00+12юв359212 0.3 102181
06:00+13юв25915 0.0 1021173
09:00+17юв467757 0.0 1020790
12:00+22юв595639 0.0 10191665
15:00+21вюв51070100 2.1 10161306
18:00+16ю6109199 4.4 1015677
21:00+12юв1195100 10.8 101610
14 мая, пт
пт1400:00+11ю229499 0.0 101716
03:00+11ю22950 0.0 101832
06:00+12ю24935 0.0 1018127
09:00+17ю3575100 0.0 1019523
12:00+20ю4763100 0.0 10181462
15:00+22ю475473 0.0 10171951
18:00+19ююв3674100 1.0 1017150
21:00+16вюв478582 1.1 1015113
15 мая, сб
сб1500:00+15юв41292100 0.8 1015267
03:00+14юв3895100 3.1 1013158
06:00+15ююв3795100 0.0 1013207
09:00+19юв3481100 0.0 1011316
12:00+22ю4669100 0.4 1011712
15:00+23ю5868100 3.3 10101146
18:00+20ю5117945 3.4 1009798
21:00+14ююв512958 6.0 1010319
16 мая, вс
вс1600:00+13ю4129822 0.1 1010282
03:00+13ююз512952 0.1 1010448
06:00+13ююз5119456 0.0 1011547
09:00+16юз6108167 0.0 1012848
12:00+19юз687197 0.1 10121286
15:00+21юз58604 0.3 10121582
18:00+18зюз5107798 2.0 1012487
21:00+14ююз399226 2.4 1013192
17 мая, пн
пн1700:00+13юз38965 0.0 1013178
03:00+12юз37976 0.0 1014145
06:00+14зюз25940 0.0 1015161
09:00+18юз347814 0.0 1016593
12:00+22юз235996 0.0 10161236
15:00+23ююз125199 0.0 10161500
18:00+22юв2267100 0.0 101628
21:00+17вюв337699 0.0 101627